Waarnemingen

Advertentie
Mijn weer
Brüssel, België (6451): temperatuur & dauwpunt: 14.10.2018 19:00:00 - 20.10.2018 19:00:00 (CEST)Brüssel, België (6451): windsnelheid & windstoten: 14.10.2018 19:00:00 - 20.10.2018 19:00:00 (CEST)Brüssel, België (6451): windrichting: 14.10.2018 19:00:00 - 20.10.2018 19:00:00 (CEST)Brüssel, België (6451): luchtdruk: 14.10.2018 19:00:00 - 20.10.2018 19:00:00 (CEST)Brüssel, België (6451): zicht: 14.10.2018 19:00:00 - 20.10.2018 19:00:00 (CEST)
Datum & Tijd tt [°C] td [°C] ff [km/u] ff [kn] fx [km/u] fx [kn] dd ppp [hPa] vv [km]
20.10.2018 19:00:00 11,3 6,4 4 2 4 2 N 1031,4 10
20.10.2018 18:00:00 12,7 7,2 4 2 22 12 - 1031,1 10
20.10.2018 17:00:00 13,9 6,3 4 2 - - - 1031,4 10
20.10.2018 16:00:00 13,4 6,5 9 5 11 6 N 1031,6 10
20.10.2018 15:00:00 13,5 6,0 5 3 11 6 N 1031,9 10
20.10.2018 14:00:00 13,4 6,9 5 3 - - NO 1032,4 10
20.10.2018 13:00:00 12,4 6,5 4 2 11 6 - 1032,4 10
20.10.2018 12:00:00 11,9 7,9 5 3 7 4 ONO 1032,6 10
20.10.2018 11:00:00 9,1 7,8 2 1 - - - 1032,4 7
20.10.2018 10:00:00 7,1 6,4 0 0 4 2 N 1031,8 3,8
20.10.2018 09:00:00 4,0 4,0 2 1 - - OZO - 1,5
20.10.2018 08:00:00 5,5 5,5 2 1 - - NNO 1030,6 3,5
20.10.2018 07:00:00 5,5 5,4 2 1 11 6 NNW 1030,2 7
20.10.2018 06:00:00 5,5 5,4 4 2 4 2 NNW 1029,4 8
20.10.2018 05:00:00 6,0 6,0 4 2 - - WNW 1029,1 7
20.10.2018 04:00:00 6,0 5,7 4 2 7 4 NW 1029,0 8
20.10.2018 03:00:00 6,8 6,2 4 2 4 2 NW 1028,7 10
20.10.2018 02:00:00 7,5 7,2 2 1 - - - 1028,2 10
20.10.2018 01:00:00 7,9 6,8 4 2 11 6 N 1028,0 10
20.10.2018 00:00:00 9,0 7,6 5 3 11 6 N 1028,0 10
19.10.2018 23:00:00 10,2 8,0 8 4 - - N 1027,5 10
19.10.2018 22:00:00 11,1 8,8 8 4 11 6 N 1027,0 10
19.10.2018 21:00:00 11,6 9,0 4 2 11 6 - 1026,4 10
19.10.2018 20:00:00 13,5 9,7 4 2 - - - 1025,9 10
19.10.2018 19:00:00 14,3 8,7 5 3 14 8 N 1025,3 10
19.10.2018 18:00:00 15,2 9,1 4 2 11 6 - 1024,7 10
19.10.2018 17:00:00 15,0 8,9 5 3 - - N 1024,6 10
19.10.2018 16:00:00 15,1 8,6 9 5 14 8 NNO 1024,7 10
19.10.2018 15:00:00 14,9 8,4 5 3 14 8 NO 1024,9 10
19.10.2018 14:00:00 13,7 8,3 4 2 - - - 1025,1 9
19.10.2018 13:00:00 12,8 8,5 8 4 14 8 ONO 1025,4 7
19.10.2018 12:00:00 12,5 9,1 8 4 14 8 ONO 1025,4 7
19.10.2018 11:00:00 11,9 8,7 8 4 - - ONO 1025,3 8
19.10.2018 10:00:00 10,6 8,0 11 6 14 8 NO 1025,1 6
19.10.2018 09:00:00 9,7 7,0 9 5 14 8 NO 1024,9 10
19.10.2018 08:00:00 10,1 7,2 5 3 - - NNO 1024,8 10
19.10.2018 07:00:00 10,7 9,3 8 4 14 8 NO 1024,6 10
19.10.2018 06:00:00 10,8 9,6 5 3 7 4 NNO 1024,6 10
19.10.2018 05:00:00 10,8 9,5 4 2 - - NNO 1024,6 10
19.10.2018 04:00:00 10,6 9,2 2 1 7 4 N 1024,5 10
19.10.2018 03:00:00 9,7 8,3 2 1 4 2 O 1024,5 10
19.10.2018 02:00:00 10,3 7,9 2 1 - - - 1024,6 10
19.10.2018 01:00:00 11,1 7,9 2 1 7 4 O 1024,9 10
19.10.2018 00:00:00 10,0 8,0 8 4 - - NO - 10
18.10.2018 23:00:00 11,8 9,1 9 5 - - NNO 1025,1 10
18.10.2018 22:00:00 12,2 9,6 9 5 14 8 NNO 1025,1 10
18.10.2018 21:00:00 13,4 9,6 9 5 18 10 NO 1024,8 10
18.10.2018 20:00:00 12,7 10,2 11 6 - - NO 1024,3 10
18.10.2018 19:00:00 12,3 7,8 9 5 25 14 NO 1024,4 10
18.10.2018 18:00:00 15,0 9,6 18 10 25 14 NO 1024,1 10
18.10.2018 17:00:00 15,0 9,6 11 6 - - NO 1024,2 10
18.10.2018 16:00:00 14,9 9,3 16 9 29 16 NNO 1024,6 10
18.10.2018 15:00:00 17,2 10,8 13 7 25 14 NO 1024,4 10
18.10.2018 14:00:00 15,3 8,3 15 8 - - NNO 1024,7 10
18.10.2018 13:00:00 15,0 9,8 11 6 22 12 ONO 1025,0 10
18.10.2018 12:00:00 13,4 10,4 9 5 18 10 NO 1025,0 10
18.10.2018 11:00:00 11,5 9,4 11 6 - - NO 1024,8 7
18.10.2018 10:00:00 10,7 9,1 5 3 14 8 NO 1024,5 3,9
18.10.2018 09:00:00 10,1 8,5 8 4 14 8 NNO 1024,1 2,5
18.10.2018 08:00:00 9,6 7,7 5 3 - - N 1023,7 4,0
18.10.2018 07:00:00 10,8 10,3 4 2 14 8 - 1023,4 4,0
18.10.2018 06:00:00 11,2 10,6 8 4 11 6 N 1023,1 7
18.10.2018 05:00:00 11,7 10,8 5 3 - - N 1023,0 10
18.10.2018 04:00:00 12,1 10,9 8 4 14 8 N 1022,9 10
18.10.2018 03:00:00 12,7 11,0 8 4 11 6 N 1022,8 10
18.10.2018 02:00:00 13,0 10,7 8 4 - - N 1022,7 10
18.10.2018 01:00:00 13,0 11,1 5 3 11 6 N 1022,6 10
18.10.2018 00:00:00 13,1 11,2 8 4 11 6 NNO 1022,4 10
17.10.2018 23:00:00 13,0 11,1 5 3 - - NNW 1022,0 10
17.10.2018 22:00:00 13,0 11,2 5 3 11 6 N 1021,8 10
17.10.2018 21:00:00 13,8 12,0 8 4 18 10 N 1021,2 10
17.10.2018 20:00:00 15,1 12,7 9 5 - - N 1020,7 10
17.10.2018 19:00:00 15,8 12,3 4 2 14 8 N 1019,9 10
17.10.2018 18:00:00 18,0 12,4 9 5 14 8 N 1019,6 10
17.10.2018 17:00:00 18,4 12,2 9 5 - - NNW 1019,7 10
17.10.2018 16:00:00 19,4 12,6 5 3 11 6 N 1019,5 10
17.10.2018 15:00:00 18,9 12,9 2 1 11 6 O 1019,6 10
17.10.2018 14:00:00 18,4 12,9 5 3 - - - 1019,8 10
17.10.2018 13:00:00 17,3 13,0 4 2 11 6 - 1020,1 10
17.10.2018 12:00:00 16,9 13,6 5 3 11 6 NNO 1020,3 10
17.10.2018 11:00:00 15,9 13,5 4 2 - - - 1019,9 8
17.10.2018 10:00:00 14,2 12,3 5 3 7 4 W 1019,9 8
17.10.2018 09:00:00 10,4 10,1 4 2 7 4 ZZW 1019,8 5
17.10.2018 08:00:00 10,1 9,7 8 4 - - ZW 1019,3 7
17.10.2018 07:00:00 10,6 9,8 8 4 11 6 ZZW 1019,1 6
17.10.2018 06:00:00 10,8 9,8 8 4 7 4 ZZW 1018,8 7
17.10.2018 05:00:00 11,1 9,8 5 3 - - ZZW 1018,7 7
17.10.2018 04:00:00 12,6 10,7 5 3 14 8 W 1018,7 10
17.10.2018 03:00:00 13,2 10,3 9 5 22 12 W 1018,8 10
17.10.2018 02:00:00 13,5 10,3 11 6 - - Z 1018,3 10
17.10.2018 01:00:00 12,7 10,3 9 5 14 8 ZZW 1018,5 10
17.10.2018 00:00:00 13,6 10,4 9 5 11 6 Z 1018,4 10
16.10.2018 23:00:00 13,9 10,7 9 5 - - ZZW 1018,8 10
16.10.2018 22:00:00 14,4 -16,2 5 3 11 6 ZZO 1018,6 10
16.10.2018 21:00:00 15,8 11,3 5 3 7 4 ZZO 1018,6 10
16.10.2018 20:00:00 17,0 10,8 8 4 - - ZW 1018,5 10
16.10.2018 19:00:00 21,6 10,3 4 2 11 6 Z 1018,0 10
16.10.2018 18:00:00 22,5 10,4 8 4 14 8 ZZO 1017,9 10
16.10.2018 17:00:00 23,6 10,6 8 4 - - OZO 1017,9 10
16.10.2018 16:00:00 24,1 10,2 11 6 18 10 ZO 1018,1 10
16.10.2018 15:00:00 23,8 10,6 9 5 18 10 O 1018,0 10
16.10.2018 14:00:00 23,1 12,5 5 3 - - O 1018,3 10
16.10.2018 13:00:00 23,3 11,0 8 4 11 6 ZO 1018,7 10
16.10.2018 12:00:00 21,3 12,1 0 0 11 6 N 1018,7 10
16.10.2018 11:00:00 18,9 10,9 8 4 - - Z 1018,5 10
16.10.2018 10:00:00 15,9 10,8 9 5 11 6 Z 1018,3 10
16.10.2018 09:00:00 11,5 9,5 9 5 11 6 Z 1018,0 10
16.10.2018 08:00:00 10,2 8,8 9 5 - - Z 1017,6 10
16.10.2018 07:00:00 10,0 8,9 8 4 11 6 ZZO 1017,3 10
16.10.2018 06:00:00 11,2 9,2 11 6 11 6 Z 1017,1 10
16.10.2018 05:00:00 11,0 9,0 5 3 - - ZZW 1017,2 10
16.10.2018 04:00:00 10,3 8,7 4 2 4 2 ZO 1016,7 10
16.10.2018 03:00:00 12,5 9,2 4 2 4 2 NO 1016,6 10
16.10.2018 02:00:00 12,7 9,2 2 1 - - - 1016,2 10
16.10.2018 01:00:00 13,4 9,6 9 5 11 6 Z 1015,8 10
16.10.2018 00:00:00 12,2 9,3 8 4 7 4 Z 1015,5 10
15.10.2018 23:00:00 13,5 9,8 8 4 - - Z 1015,4 10
15.10.2018 22:00:00 13,7 10,5 8 4 11 6 Z 1015,0 10
15.10.2018 21:00:00 15,8 11,0 8 4 11 6 Z 1014,7 10
15.10.2018 20:00:00 16,9 9,1 5 3 - - Z 1014,5 10
15.10.2018 19:00:00 18,7 10,8 5 3 11 6 Z 1013,8 10
15.10.2018 18:00:00 21,9 11,0 9 5 22 12 ZZW 1013,2 10
15.10.2018 17:00:00 23,8 12,7 11 6 - - ZW 1012,8 10
15.10.2018 16:00:00 22,6 11,6 11 6 22 12 ZZW 1012,5 10
15.10.2018 15:00:00 22,6 11,6 16 9 22 12 Z 1012,4 10
15.10.2018 14:00:00 22,1 11,8 13 7 - - ZW 1012,4 10
15.10.2018 13:00:00 20,4 10,2 15 8 25 14 Z 1012,5 10
15.10.2018 12:00:00 19,5 11,4 13 7 22 12 Z 1012,2 10
15.10.2018 11:00:00 19,5 11,2 13 7 - - Z 1011,7 10
15.10.2018 10:00:00 17,6 10,9 13 7 22 12 Z 1011,0 10
15.10.2018 09:00:00 16,9 10,2 15 8 22 12 Z 1010,5 10
15.10.2018 08:00:00 16,2 9,0 15 8 - - Z 1010,0 10
15.10.2018 07:00:00 15,8 8,7 15 8 22 12 Z 1009,4 10
15.10.2018 06:00:00 16,1 8,4 15 8 22 12 Z 1009,3 10
15.10.2018 05:00:00 16,3 8,7 16 9 - - Z 1008,8 10
15.10.2018 04:00:00 17,0 8,8 16 9 29 16 Z 1008,9 10
15.10.2018 03:00:00 18,1 9,7 18 10 29 16 Z 1008,8 10
15.10.2018 02:00:00 18,1 9,8 16 9 - - ZZO 1008,8 10
15.10.2018 01:00:00 18,3 10,0 15 8 22 12 Z 1008,6 10
15.10.2018 00:00:00 18,4 10,3 13 7 18 10 Z 1008,2 10
14.10.2018 23:00:00 18,1 10,6 11 6 - - ZZO 1008,1 10
14.10.2018 22:00:00 17,7 11,2 7 4 14 8 ZO 1008,0 35
14.10.2018 21:00:00 18,8 11,0 9 5 14 8 ZZO 1007,7 10
14.10.2018 20:00:00 17,8 11,7 7 4 - - ZZO 1007,5 35
14.10.2018 19:00:00 20,2 11,6 8 4 18 10 Z 1007,3 10

tt = temperatuur
td = dauwpunt
ff = windsnelheid
fx = windstoten
dd = windrichting
ppp = luchtdruk
vv = zicht

Weerstations in de omgeving